Weather History for Figari, France

Change the Weather History Date:

Monday, June 9, 2014

  Actual Average Record
Temperature  
Mean Temperature 70 °F -  
Max Temperature 90 °F 81 °F 90 °F (2014)
Min Temperature 50 °F 67 °F 50 °F (2014)
Cooling Degree Days 5    
Growing Degree Days 20 (Base 50)    
Moisture  
Dew Point 53 °F    
Average Humidity 53    
Maximum Humidity 94    
Minimum Humidity 20    
Precipitation  
Precipitation 0.00 in - - ()
Sea Level Pressure  
Sea Level Pressure 30.04 in    
Wind  
Wind Speed 4 mph ()    
Max Wind Speed 14 mph    
Max Gust Speed -    
Visibility 6.3 miles    
Events      
Averages and records for this station are not official NWS values.
T = Trace of Precipitation, MM = Missing Value Source: Averaged Metar Reports

Daily Weather History Graph

Daily Weather History Graph

Search for Another Location

Airport:

Trip Planner

Search our weather history database for the weather conditions in past years. The results will help you decide how hot, cold, wet, or windy it might be!

Date:

Astronomy

Jun. 09, 2014 Rise Set
Actual Time 5:49 AM CEST 8:56 PM CEST
Civil Twilight 5:15 AM CEST 9:30 PM CEST
Nautical Twilight 4:32 AM CEST 10:13 PM CEST
Astronomical Twilight 3:41 AM CEST 11:04 PM CEST
Moon 4:57 PM CEST (6/9) 3:10 AM CEST (6/9)
Length of Visible Light 16h 14m
Length of Day
15h 06m
Waxing Gibbous, 83% of the Moon is Illuminated
Jun 9
Waxing Gibbous
Jun 13
Full
Jun 19
Last Quarter
Jun 27
New
Jul 5
First Quarter

Hourly Weather History & Observations

Time (CEST) Temp. Heat Index Dew Point Humidity Pressure Visibility Wind Dir Wind Speed Gust Speed Precip Events Conditions
12:00 AM 56 °F - 51 °F 76% 30.09 in 34 mi NNE 2.3 mph - -   Clear
12:00 AM 55.4 °F - 50.0 °F 82% 30.06 in 6.2 mi NNE 2.3 mph - N/A   Unknown
12:30 AM 55.4 °F - 50.0 °F 82% 30.06 in 6.2 mi NNE 3.5 mph - N/A   Unknown
1:00 AM 53.6 °F - 50.0 °F 88% 30.06 in 6.2 mi Calm Calm - N/A   Unknown
1:30 AM 53.6 °F - 48.2 °F 82% 30.06 in 6.2 mi North 1.2 mph - N/A   Unknown
2:00 AM 53 °F - 49 °F 80% 30.07 in 37 mi Calm Calm - -   Clear
2:00 AM 51.8 °F - 48.2 °F 88% 30.06 in 6.2 mi Calm Calm - N/A   Unknown
2:30 AM 51.8 °F - 48.2 °F 88% 30.06 in 6.2 mi NNE 2.3 mph - N/A   Unknown
3:00 AM 52 °F - 49 °F 85% 30.06 in 37 mi NE 2.3 mph - -   Clear
3:00 AM 51.8 °F - 48.2 °F 88% 30.04 in 6.2 mi NE 2.3 mph - N/A   Unknown
3:30 AM 53.6 °F - 50.0 °F 88% 30.06 in 6.2 mi NNE 3.5 mph - N/A   Unknown
4:00 AM 52 °F - 49 °F 85% 30.06 in 37 mi Calm Calm - -   Clear
4:00 AM 51.8 °F - 48.2 °F 88% 30.04 in 6.2 mi Calm Calm - N/A   Unknown
4:30 AM 51.8 °F - 48.2 °F 88% 30.04 in 6.2 mi Calm Calm - N/A   Unknown
5:00 AM 51 °F - 49 °F 88% 30.05 in 37 mi Calm Calm - -   Clear
5:00 AM 51.8 °F - 48.2 °F 88% 30.04 in 6.2 mi Calm Calm - N/A   Unknown
5:30 AM 51.8 °F - 48.2 °F 88% 30.04 in 6.2 mi Calm Calm - N/A   Unknown
6:00 AM 51 °F - 49 °F 92% 30.05 in 37 mi SE 4.6 mph - -   Clear
6:00 AM 51.8 °F - 50.0 °F 94% 30.04 in 6.2 mi SE 4.6 mph - N/A   Unknown
6:30 AM 53.6 °F - 51.8 °F 94% 30.04 in 6.2 mi Calm Calm - N/A   Unknown
7:00 AM 58 °F - 56 °F 89% 30.06 in 7 mi Calm Calm - -   Clear
7:00 AM 59.0 °F - 55.4 °F 88% 30.04 in 6.2 mi Calm Calm - N/A   Unknown
7:30 AM 66.2 °F - 57.2 °F 73% 30.04 in 6.2 mi Calm Calm - N/A   Unknown
8:00 AM 72 °F - 59 °F 55% 30.06 in 34 mi ESE 1.2 mph - -   Clear
8:00 AM 71.6 °F - 59.0 °F 64% 30.04 in 6.2 mi Calm Calm - N/A   Unknown
8:30 AM 78.8 °F - 57.2 °F 47% 30.04 in 6.2 mi Calm Calm - N/A   Unknown
9:00 AM 84 °F - 58 °F 32% 30.06 in 37 mi SSW 1.2 mph - -   Clear
9:00 AM 84.2 °F 83.8 °F 59.0 °F 42% 30.04 in 6.2 mi Variable 1.2 mph - N/A   Unknown
9:30 AM 84.2 °F 83.5 °F 57.2 °F 40% 30.04 in 6.2 mi Variable 3.5 mph - N/A   Unknown
10:00 AM 88 °F - 58 °F 26% 30.05 in 37 mi NE 9.2 mph - -   Clear
10:00 AM 87.8 °F 86.5 °F 57.2 °F 35% 30.04 in 6.2 mi NE 9.2 mph - N/A   Unknown
10:30 AM 87.8 °F - 51.8 °F 29% 30.04 in 6.2 mi ENE 10.4 mph - N/A   Unknown
11:00 AM 88 °F - 53 °F 20% 30.05 in 37 mi NE 10.4 mph - -   Clear
11:00 AM 87.8 °F 85.7 °F 53.6 °F 31% 30.04 in 6.2 mi NE 10.4 mph - N/A   Unknown
11:30 AM 89.6 °F 87.3 °F 53.6 °F 29% 30.04 in 6.2 mi NE 12.7 mph - N/A   Unknown
12:00 PM 89 °F - 54 °F 21% 30.05 in 37 mi NE 12.7 mph - -   Clear
12:00 PM 89.6 °F 87.3 °F 53.6 °F 29% 30.04 in 6.2 mi NE 12.7 mph - N/A   Unknown
12:30 PM 89.6 °F 87.3 °F 53.6 °F 29% 30.04 in 6.2 mi ENE 12.7 mph - N/A   Unknown
1:00 PM 89 °F - 55 °F 22% 30.05 in 31 mi NE 12.7 mph - -   Clear
1:00 PM 89.6 °F 87.7 °F 55.4 °F 31% 30.04 in 6.2 mi NE 12.7 mph - N/A   Unknown
1:30 PM 87.8 °F 85.7 °F 53.6 °F 31% 30.04 in 6.2 mi NNE 13.8 mph - N/A   Unknown
2:00 PM 89 °F - 54 °F 20% 30.04 in 31 mi NE 12.7 mph - -   Clear
2:00 PM 89.6 °F 87.3 °F 53.6 °F 29% 30.04 in 6.2 mi NE 12.7 mph - N/A   Unknown
2:30 PM 89.6 °F 87.3 °F 53.6 °F 29% 30.04 in 6.2 mi NNE 13.8 mph - N/A   Unknown
3:00 PM 90 °F - 54 °F 20% 30.04 in 31 mi NNE 12.7 mph - -   Clear
3:00 PM 89.6 °F 87.3 °F 53.6 °F 29% 30.04 in 6.2 mi NNE 12.7 mph - N/A   Unknown
3:30 PM 89.6 °F 88.1 °F 57.2 °F 33% 30.04 in 6.2 mi NE 10.4 mph - N/A   Unknown
4:00 PM 88 °F - 58 °F 26% 30.03 in 28 mi ENE 11.5 mph - -   Clear
4:00 PM 87.8 °F 86.5 °F 57.2 °F 35% 30.04 in 6.2 mi ENE 11.5 mph - N/A   Unknown
4:30 PM 87.8 °F 86.5 °F 57.2 °F 35% 30.01 in 6.2 mi ENE 9.2 mph - N/A   Unknown
5:00 PM 89 °F - 58 °F 25% 30.02 in 31 mi East 9.2 mph - -   Clear
5:00 PM 89.6 °F 88.9 °F 59.0 °F 36% 30.01 in 6.2 mi East 9.2 mph - N/A   Unknown
5:30 PM 87.8 °F 86.5 °F 57.2 °F 35% 30.01 in 6.2 mi NE 9.2 mph - N/A   Unknown
6:00 PM 86 °F - 54 °F 23% 30.01 in 12 mi NE 10.4 mph - -   Clear
6:00 PM 86.0 °F 84.2 °F 53.6 °F 33% 30.01 in 6.2 mi NE 10.4 mph - N/A   Unknown
6:30 PM 86.0 °F - 51.8 °F 31% 30.01 in 6.2 mi ENE 8.1 mph - N/A   Unknown
7:00 PM 85 °F - 51 °F 21% 30.01 in 34 mi ENE 6.9 mph - -   Clear
7:00 PM 84.2 °F - 50.0 °F 30% 30.01 in 6.2 mi ENE 6.9 mph - N/A   Unknown
7:30 PM 84.2 °F 82.8 °F 53.6 °F 35% 30.01 in 6.2 mi ENE 8.1 mph - N/A   Unknown
8:00 PM 82 °F - 53 °F 26% 30.01 in 34 mi East 5.8 mph - -   Clear
8:00 PM 82.4 °F 81.4 °F 53.6 °F 37% 30.01 in 6.2 mi East 5.8 mph - N/A   Unknown
8:30 PM 77.0 °F - 55.4 °F 47% 30.01 in 6.2 mi East 5.8 mph - N/A   Unknown
9:00 PM 73 °F - 54 °F 42% 30.02 in 37 mi ENE 5.8 mph - -   Clear
9:00 PM 73.4 °F - 55.4 °F 53% 30.01 in 6.2 mi ENE 5.8 mph - N/A   Unknown
9:30 PM 71.6 °F - 53.6 °F 53% 30.01 in 6.2 mi NE 6.9 mph - N/A   Unknown
10:00 PM 72 °F - 55 °F 44% 30.03 in 37 mi ENE 5.8 mph - -   Clear
10:00 PM 71.6 °F - 55.4 °F 57% 30.01 in 6.2 mi ENE 5.8 mph - N/A   Unknown
10:30 PM 66.2 °F - 53.6 °F 64% 30.01 in 6.2 mi NNE 4.6 mph - N/A   Unknown
11:00 PM 65 °F - 53 °F 56% 30.04 in 37 mi NE 4.6 mph - -   Clear
11:00 PM 64.4 °F - 53.6 °F 68% 30.04 in 6.2 mi NE 4.6 mph - N/A   Unknown
11:30 PM 64.4 °F - 51.8 °F 64% 30.04 in 6.2 mi NE 3.5 mph - N/A   Unknown